Location: Unspecified
(0.0000°N, 0.0000°E)
Time: 11:04:38
(UTC+00:00)

deb Explorer IX - All Passes

Search period start: 30 May 2017 00:00
Search period end: 09 June 2017 00:00
Orbit: 538 x 1128 km, 38.8° (Epoch: 29 May)

Date Brightness Start Highest point End Pass type
(mag) Time Alt. Az. Time Alt. Az. Time Alt. Az.
30 May - 01:39:03 10° S 01:42:15 19° SE 01:45:45 10° E night (unlit)
30 May - 03:24:30 10° WSW 03:29:09 49° NW 03:34:38 10° NE visible
30 May - 12:36:24 10° N 12:40:06 15° NE 12:43:39 10° ENE daylight
30 May - 14:21:11 10° NW 14:28:12 70° NE 14:34:14 10° ESE daylight
30 May - 16:10:50 10° W 16:15:24 20° SW 16:19:31 10° S daylight
31 May - 01:19:29 10° S 01:22:42 20° SE 01:26:14 10° E night (unlit)
31 May - 03:05:09 10° WSW 03:09:36 44° NW 03:14:49 10° NNE visible
31 May - 12:16:17 10° N 12:20:27 16° NE 12:24:27 10° ENE daylight
31 May - 14:01:22 10° NW 14:08:31 75° NE 14:14:44 10° SE daylight
31 May - 15:51:12 10° W 15:55:46 20° SW 15:59:55 10° S daylight
01 Jun - 00:59:55 10° S 01:03:10 21° SE 01:06:43 10° E night (unlit)
01 Jun - 02:45:48 10° WSW 02:50:04 39° NW 02:55:01 10° NNE visible
01 Jun - 11:56:14 10° N 12:00:47 17° NE 12:05:10 10° ENE daylight
01 Jun - 13:41:33 10° NW 13:48:47 80° NE 13:55:12 10° SE daylight
01 Jun - 15:31:35 10° W 15:36:07 19° SW 15:40:16 10° S daylight
02 Jun - 00:40:20 10° S 00:43:38 22° SE 00:47:12 10° E night (unlit)
02 Jun - 02:26:27 10° WSW 02:30:32 35° NW 02:35:12 10° NNE visible
02 Jun - 11:36:14 10° N 11:41:06 19° NE 11:45:49 10° ENE daylight
02 Jun - 13:21:43 10° NW 13:29:04 84° NE 13:35:39 10° SE daylight
02 Jun - 15:11:57 10° W 15:16:28 18° SW 15:20:36 10° S daylight
03 Jun - 00:20:45 10° SSW 00:24:06 24° SE 00:27:42 10° E night (unlit)
03 Jun - 02:07:06 10° WSW 02:11:00 31° NW 02:15:23 10° NNE visible
03 Jun - 11:16:15 10° N 11:21:24 20° NE 11:26:24 10° E daylight
03 Jun - 13:01:55 10° NW 13:09:20 89° NE 13:16:03 10° SE daylight
03 Jun - 14:52:20 10° W 14:56:46 18° SW 15:00:54 10° S daylight
04 Jun - 00:01:10 10° SSW 00:04:34 25° SE 00:08:11 10° E night (unlit)
04 Jun - 01:47:47 10° W 01:51:28 28° NW 01:55:34 10° NNE night (unlit)
04 Jun - 10:56:18 10° N 11:01:41 21° NE 11:06:57 10° E daylight
04 Jun - 12:42:06 10° NW 12:49:35 87° SW 12:56:26 10° SE daylight
04 Jun - 14:32:43 10° W 14:37:05 17° SW 14:41:11 10° S daylight
04 Jun - 23:41:33 10° SSW 23:45:02 27° SE 23:48:41 10° E night (unlit)
05 Jun - 01:28:27 10° W 01:31:56 25° NW 01:35:45 10° NNE night (unlit)
05 Jun - 10:36:23 10° N 10:41:56 23° NE 10:47:27 10° E daylight
05 Jun - 12:22:19 10° NW 12:29:48 82° SW 12:36:47 10° SE daylight
05 Jun - 14:13:06 10° WSW 14:17:22 17° SW 14:21:25 10° S daylight
05 Jun - 23:21:57 10° SSW 23:25:30 30° SE 23:29:11 10° ENE night (unlit)
06 Jun - 01:09:08 10° W 01:12:24 22° NW 01:15:55 10° NNE night (unlit)
06 Jun - 10:16:29 10° NNW 10:22:11 24° NE 10:27:54 10° E daylight
06 Jun - 12:02:31 10° NW 12:10:00 78° SW 12:17:06 10° SE daylight
06 Jun - 13:53:31 10° WSW 13:57:39 16° SW 14:01:37 10° S daylight
06 Jun - 23:02:19 10° SSW 23:05:58 32° SE 23:09:42 10° ENE night (unlit)
07 Jun - 00:49:50 10° W 00:52:52 20° NW 00:56:05 10° N night (unlit)
07 Jun - 09:56:36 10° NNW 10:02:26 25° NE 10:08:19 10° E daylight
07 Jun - 11:42:45 10° NW 11:50:12 74° SW 11:57:23 10° SE daylight
07 Jun - 13:33:56 10° WSW 13:37:56 15° SW 13:41:47 10° S daylight
07 Jun - 22:42:40 10° SSW 22:46:26 36° SE 22:50:11 10° ENE night (unlit)
08 Jun - 00:30:32 10° W 00:33:19 18° NW 00:36:14 10° N night (unlit)
08 Jun - 09:36:45 10° NNW 09:42:39 27° NE 09:48:41 10° E daylight
08 Jun - 11:22:59 10° NW 11:30:23 70° SW 11:37:39 10° SE daylight
08 Jun - 13:14:24 10° WSW 13:18:12 15° SW 13:21:54 10° S daylight
08 Jun - 22:23:01 10° SSW 22:26:54 40° SE 22:30:42 10° ENE night (unlit)
